User: anonymous   Login
Location: Unspecified
(0.0000°N, 0.0000°E)
Time: 16:43:09
(UTC+02:00)
Language:

YAOGAN 3 - Orbit

View from above orbital plane
View from above orbital plane
View from above satellite
View from above satellite

Ground track
Ground track

The orbit data is extracted from the following two-line orbital elements,

1 32289U 07055A   17115.87291605 +.00000050 +00000-0 +13390-4 0  9999
2 32289 097.9987 117.9490 0001753 096.4172 263.7238 14.80804332510999
Epoch (UTC): 25 April 2017 20:56:59
Eccentricity: 0.0001753
inclination: 97.9987°
perigee height: 625 km
apogee height: 628 km
right ascension of ascending node: 117.9490°
argument of perigee: 96.4172°
revolutions per day: 14.80804332
mean anomaly at epoch: 263.7238°
orbit number at epoch: 51099

The dashed part of the orbit path shows where the satellite is in the earth's shadow,  

DLR